Back to catalog

STARLINK-1356

AliveCommunicationsVLEO
NORAD 45564·PAYLOAD·🇺🇸 United States

Launched Apr 22, 2020 from Cape Canaveral Space Force Station

Loading…

Next Passes (next 24 hours)

TLE

FreshSource: CelesTrak SupGP

Epoch: Sep 14, 2026, 13:39 UTC

1 45564C 20025AK  26257.56923611  .00017902  00000+0  12021-3 0  2572
2 45564  53.0376 231.7664 0003351  46.7209  12.8037 15.74506128    10

Track STARLINK-1356 in real time with AllMySat

Download on the App Store